Regional Weather Roundup
Issued by NWS Wakefield, VA

Home | Current Version | Previous Version | Graphics & Text | Print | Product List | Glossary On
Versions: 1 2 3 4 5 6 7 8 9 10 11 12 13 14 15 16 17 18 19 20 21 22 23 24 25 26 27 28 29 30 31 32 33 34 35 36 37 38 39 40 41 42 43 44 45 46 47 48 49 50
000
ASUS41 KAKQ 041214
RWRAKQ

REGIONAL WEATHER ROUNDUP
NATIONAL WEATHER SERVICE WAKEFIELD VA
800 AM EDT FRI SEP 04 2015

Note: "fair" indicates few or no clouds below 12,000 feet with no
significant weather and/or obstructions to visibility. * = Denotes
station may not report precipitation (e.g., rain,snow,etc.),
thunder or fog.

VAZ042-051-052>054-056-041300-
NORTHERN VIRGINIA

CITY           SKY/WX    TMP DP  RH WIND       PRES   REMARKS
WASH NATIONAL  PTSUNNY   79  70  74 N5        29.98R
DULLES         MOSUNNY   75  68  78 NW5       30.00R
FORT BELVOIR   SUNNY     73  71  93 NW3       29.98R
QUANTICO       MOSUNNY   76  68  76 NW5       29.99R
FREDERICKSBRG* SUNNY     73  72  97 NW3       29.97R
STAFFORD*      SUNNY     74  68  83 N6        30.02R
WARRENTON      SUNNY     71  71  98 CALM      30.00R FOG
CULPEPER*      MOSUNNY   71  69  92 N3        30.01R
MANASSAS*      SUNNY     72  72 100 CALM      29.99R
LEESBURG*      SUNNY     75  72  88 NW10      30.02R
WINCHESTER     SUNNY     70  68  94 CALM      30.04R FOG
FRONT ROYAL*   FAIR      68  68 100 CALM      30.03S
LURAY*         FOG       64  64 100 CALM      30.05R VSB<1/4
$$

VAZ048-049-060>072-079>083-041300-
CENTRAL AND SOUTH CENTRAL VIRGINIA

CITY           SKY/WX    TMP DP  RH WIND       PRES   REMARKS
RICHMOND       MOSUNNY   76  69  79 N6        29.97R
CHESTERFIELD*  FAIR      73  61  64 CALM      29.98R
PETERSBURG*    SUNNY     74  74 100 CALM      29.98R FOG
HANOVER        SUNNY     72  70  93 CALM      29.99R FOG
TAPPAHANNOCK*  SUNNY     72  69  92 CALM      29.97R FOG
QUINTON*       FAIR      72  70  95 CALM      29.96R FOG
CHARLOTTSVILLE MOSUNNY   72  69  90 CALM      30.01R
GORDONSVILLE*  FAIR      70  69  95 CALM      30.00R
ORANGE*        MOSUNNY   73  70  88 CALM      30.01R
LOUISA*        SUNNY     75  70  83 NW3       29.99R
BUMPASS*       PTSUNNY   71  70  96 CALM      29.99R
FARMVILLE*     SUNNY     71  71 100 CALM      29.98R FOG
CREWE*         FAIR     N/A N/A N/A NW3       29.98R
FORT PICKETT*  FAIR      72  69  93 NW7       29.98R
CHASE CITY*    FAIR      73  73 100 CALM      29.99R
CLARKSVILLE*   FAIR      70  70 100 CALM      29.98R
SOUTH HILL*    SUNNY     71  69  92 N3        30.03R
LAWRENCEVILLE* FAIR      72  70  94 N3        29.97R
EMPORIA*       SUNNY     70  70 100 CALM      29.97S FOG
$$

VAZ088>098-041300-
SOUTHEAST VIRGINIA

CITY           SKY/WX    TMP DP  RH WIND       PRES   REMARKS
NORFOLK        SUNNY     80  73  79 CALM      29.93R HAZE
VIRGINIA BEACH SUNNY     79  71  76 CALM      29.93R
NORFOLK NAVAL  MOSUNNY   80  75  84 N6        29.95R FOG
WEST POINT*    SUNNY     75  73  92 CALM      29.97R
SALUDA*        FAIR      76  73  90 CALM      29.95R
NEWPORT NEWS   SUNNY     75  73  93 CALM      29.94R FOG
LANGLEY AFB    SUNNY     76  74  92 N6        29.94R FOG
FORT EUSTIS    SUNNY     77  77 100 N2        29.93R
WILLIAMSBURG*  SUNNY     75  75 100 CALM      29.96R
HR EXEC AP*      N/A     72  70  94 CALM      29.96R
FRANKLIN*      SUNNY     72  71  96 CALM      29.95R FOG
WAKEFIELD      SUNNY     73  69  87 CALM      29.95R FOG
$$

VAZ020-022-025-037-045-041300-
WEST CENTRAL AND SOUTHWEST VIRGINIA

CITY           SKY/WX    TMP DP  RH WIND       PRES   REMARKS
STAUNTON*      MOSUNNY   65  64  96 CALM      30.09R FOG
WAYNESBORO*    FAIR      67  65  93 CALM      30.08R
HOT SPRINGS VA SUNNY     69  63  80 N5        30.18R
LYNCHBURG      SUNNY     70  68  93 CALM      30.04R
DANVILLE       SUNNY     70  67  90 CALM      30.00R FOG
SOUTH BOSTON*    N/A     69  67  94 CALM      29.99R
MARTINSVILLE   SUNNY     66  66 100 CALM      30.05R FOG
ROANOKE        SUNNY     71  67  87 CALM      30.07R
BLACKSBURG     SUNNY     66  66 100 CALM      30.14R FOG
DUBLIN*          N/A     67  66  97 CALM      30.12R FOG
MARION*        SUNNY     63  62  96 CALM      30.16R FOG
HILLSVILLE*    SUNNY     66  63  89 CALM      30.12R
RICHLANDS*     FAIR      67  38  35 CALM      30.15R
WISE*          SUNNY     66  66 100 CALM      30.16R
ABINGDON*      SUNNY     66  65  94 E5        30.11S FOG
$$

MDZ021>025-VAZ099-100-041300-
SOUTHERN MARYLAND AND THE DELMARVA PENINSULA

CITY           SKY/WX    TMP DP  RH WIND       PRES   REMARKS
PATUXENT RIVER MOSUNNY   77  71  82 NW5       29.96R
BAY BRIDGE APT   N/A     77  73  88 NE5       29.97R FOG
LEONARDTOWN    NOT AVBL
DOVER          MOSUNNY   75  75 100 NE6       29.97R FOG
GEORGETOWN     SUNNY     73  69  87 CALM      29.98R FOG
EASTON         SUNNY     75  75 100 CALM      30.00R FOG
CAMBRIDGE        N/A     72  68  88 CALM      29.95R
SALISBURY      SUNNY     71  70  96 CALM      29.96R FOG
OCEAN CITY     MOSUNNY   75  72  90 CALM      29.96R
WALLOPS ISLAND SUNNY     77  74  90 NE5       29.96R FOG
ACCOMACK*      SUNNY     72  68  88 NE5       29.94R FOG
$$

NCZ012>017-030>032-041300-
NORTH CENTRAL AND EASTERN NORTH CAROLINA

CITY           SKY/WX    TMP DP  RH WIND       PRES   REMARKS
ROANOKE RAPIDS FAIR      70  70 100 CALM      29.96R FOG
RALEIGH        MOSUNNY   73  69  87 CALM      29.97R
ELIZABETH CITY SUNNY     75  73  93 CALM      29.94R FOG
AHOSKIE*       SUNNY     70  69  96 CALM      29.96R FOG
EDENTON*       SUNNY     74  71  92 CALM      29.95R FOG
CURRITUCK*     SUNNY     74  71  91 CALM      29.94S FOG
KILL DEVIL HLS SUNNY     78  76  94 CALM      29.93R
MANTEO         SUNNY     78  75  92 NW3       29.94R
CAPE HATTERAS  SUNNY     80  72  76 N3        29.94R
TARBORO*       FAIR      71  70  97 CALM      29.97R FOG
GOLDSBORO      SUNNY     73  71  96 CALM      29.95R
WASHINGTON     MOSUNNY   73  70  92 CALM      29.95R
GREENVILLE     SUNNY     72  72 100 CALM      29.97R FOG
NEW BERN       SUNNY     74  71  91 CALM      29.97R
WILMINGTON     SUNNY     74  71  91 CALM      29.95R
$$

VAZ048-041300-
ELSEWHERE

CITY           SKY/WX    TMP DP  RH WIND       PRES   REMARKS
HARRISBURG PA  SUNNY     75  69  81 NW5       30.01R
BALTIMORE      MOSUNNY   77  67  71 N3        29.98R
ANNAPOLIS      SUNNY     77  72  84 N5        29.97R HAZE
ANDREWS AFB    SUNNY     75  70  83 N5        29.98R
PHILADELPHIA   MOSUNNY   79  67  66 NE6       29.99R
HENDERSON NC   SUNNY     70  67  92 CALM      29.98R FOG
GREENSBORO     MOSUNNY   74  67  78 N3        30.01R
ROCKY MOUNT    SUNNY     74  72  93 CALM      29.97R FOG
$$

VAZ100-041300-
MARINE

STATION/POSITION TIME  TEMP    WIND        PRES    WAVE   SWELL
                       AIR SEA DIR/SP/G            HT/PER HT/PER
                 (UTC) (F)     (DEG/KT/KT) (MB)    (FT/S) (FT/S)
BRANDYWINE LGT   1100   77 77   90/  5/  5 1014.4R
CAPE MAY NJ      1100   74 80   80/  5/  7 1013.8R
LEWES DE         1100   74 77   CALM  /  1 1013.9R
15NM E FENWICK I 1150   79 80   50/ 10/ 12 1014.6R   1/12   2/12
OCEAN-CITY-INLET 1100   78 78   50/  1/  2 1013.0R
GOOSES REEF MD   1200   80 80   30/  6/  8 1015.5R
COVE POINT MD    1100   78      10/  5/  8 1014.5R
SOLOMONS ISLAND  1100      82                N/A
BISHOPS HEAD MD  1100   78 82   60/  5/  6 1012.8R
PINEY POINT MD   1105           CALM  /  1   N/A
POTOMAC MD       1200   80 80  350/  2/  4 1013.3R   0
CAMBRIDGE MD     1100   77 82   30/  3/  4 1012.9R
LEWISETTA VA     1100   77 82  270/  3/  3 1013.3R
RAPPAHANNOCK LGT 1100           20/  9/  9 1014.1R
STINGRAY PT      1200   80 80   40/  8/ 10 1014.6R   0
YORK RVR RNG VA  1100   78     350/  7/  8 1012.8R
JAMESTOWN VA     1200   75 82  340/  4/  8   N/A
DOMINION TERM VA 1100   80     320/  4/  5 1013.2R
KIPTOPEKE VA     1100      80  360/  3/  3   N/A
CHES BAY BRIDGE  1100   79 80  300/  4/  5 1012.8R
CAPE HENRY VA    1100   78     310/  6/  6   N/A
CHESAPEAKE LGHT  1100   78     340/  8/  8 1013.8R
WILLOUBY STN VA  1100   79      10/  5/  6 1014.2R
CAPE HENRY BUOY  1128      80                N/A     1/ 8
1ST LANDING BUOY 1200      79              1013.5R   1
CAPE CHARLES BUO 1126      79                N/A     1/ 9   2/ 9
OFFSHORE WE BUOY 1111      80                N/A     1/12   2/12
64NM E OF VA BCH 1150   79 79  330/  4/  4 1013.0R   1/12   2/12
DUCK PIER NC     1100   78 80  310/  4/  6 1012.3R
44100 DUCK FRF   1124      80                N/A     1/13
44056 DUCK FRF   1111      80                N/A     1/12
OREGON INLET NC  1100   78 82  310/  2/  4 1012.9R
HATTERAS NC      1100   80 83  330/  7/  8 1012.7R
DIAMOND SHLS NC  1150   81 85  340/  8/ 10 1013.7R   1/13   2/13
CAPE LOOKOUT NC  1200   79     340/  4/  5 1013.8R
$$



USA.gov is the U.S. government's official web portal to all federal, state and local government web resources and services.